Location: Marcé
(47.5801°N, 0.3280°W)
Time: 09:10:34
(UTC+01:00)

Vanguard 1 - Pass Details

Date: 04 December 2021
Orbit: 652 x 3830 km, 34.2° (Epoch: 16 January)

Event Time Altitude Azimuth Distance (km) Brightness Sun altitude
Exits shadow 02:03:26 33° 114° (ESE) 4,735 13.3 -60.8°
Drops below altitude 10° 02:11:48 10° 98° (E) 5,838 14.1 -60.0°
Sets 02:15:43 0° 93° (E) 6,513 14.5 -59.5°
